| time (UTC) | temp F | wind direction | speed MPH | gust MPH | rain 1hr in | rain 24hr in | rain mn in | humidity % | barometer mb |
| 20260904034717 | 72 | 0 | 0.0 | 0.0 | 0.00 | 0.00 | 0.00 | 38 | 1018.3 |
| 20260904033603 | 72 | 0 | 0.0 | 0.0 | 0.00 | 0.00 | 0.00 | 36 | 1018.3 |
| 20260904032703 | 72 | 0 | 0.0 | 0.0 | 0.00 | 0.00 | 0.00 | 34 | 1018.3 |
| 20260904031803 | 73 | 0 | 0.0 | 0.0 | 0.00 | 0.00 | 0.00 | 34 | 1018.0 |
| 20260904030903 | 73 | 0 | 0.0 | 0.0 | 0.00 | 0.00 | 0.00 | 34 | 1017.8 |
| 20260904030003 | 74 | 0 | 0.0 | 0.0 | 0.00 | 0.00 | 0.00 | 34 | 1017.7 |
| 20260904025403 | 74 | 0 | 0.0 | 0.0 | 0.00 | 0.00 | 0.00 | 34 | 1017.5 |
| 20260904024503 | 74 | 0 | 0.0 | 0.0 | 0.00 | 0.00 | 0.00 | 33 | 1017.6 |
| 20260904023603 | 75 | 0 | 0.0 | 0.0 | 0.00 | 0.00 | 0.00 | 32 | 1017.4 |
| 20260904022703 | 75 | 0 | 0.0 | 0.0 | 0.00 | 0.00 | 0.00 | 33 | 1017.3 |
| 20260904021803 | 76 | 0 | 0.0 | 0.0 | 0.00 | 0.00 | 0.00 | 32 | 1017.1 |
| 20260904020903 | 77 | 0 | 0.0 | 0.0 | 0.00 | 0.00 | 0.00 | 31 | 1017.0 |
| 20260904020218 | 78 | 0 | 0.0 | 0.0 | 0.00 | 0.00 | 0.00 | 31 | 1017.1 |
| 20260904015403 | 79 | 0 | 0.0 | 0.0 | 0.00 | 0.00 | 0.00 | 32 | 1017.1 |
| 20260904014717 | 80 | 88 | 0.0 | 2.0 | 0.00 | 0.00 | 0.00 | 30 | 1016.9 |
| 20260904013816 | 81 | 90 | 0.0 | 2.0 | 0.00 | 0.00 | 0.00 | 28 | 1016.9 |
| 20260904012703 | 83 | 100 | 1.0 | 2.0 | 0.00 | 0.00 | 0.00 | 26 | 1016.7 |
| 20260904012019 | 84 | 96 | 0.0 | 1.0 | 0.00 | 0.00 | 0.00 | 26 | 1016.7 |
| 20260904010903 | 85 | 102 | 1.0 | 2.0 | 0.00 | 0.00 | 0.00 | 25 | 1016.7 |
| 20260904010217 | 85 | 97 | 1.0 | 3.0 | 0.00 | 0.00 | 0.00 | 24 | 1016.6 |
| 20260904005617 | 86 | 103 | 1.0 | 2.0 | 0.00 | 0.00 | 0.00 | 24 | 1016.7 |
| 20260904004503 | 86 | 139 | 1.0 | 3.0 | 0.00 | 0.00 | 0.00 | 22 | 1016.8 |
| 20260904003816 | 87 | 109 | 1.0 | 3.0 | 0.00 | 0.00 | 0.00 | 21 | 1016.8 |
| 20260904002703 | 87 | 151 | 1.0 | 3.0 | 0.00 | 0.00 | 0.00 | 21 | 1016.6 |
| 20260904001803 | 87 | 140 | 1.0 | 4.0 | 0.00 | 0.00 | 0.00 | 20 | 1016.6 |
| 20260904000903 | 88 | 128 | 1.0 | 4.0 | 0.00 | 0.00 | 0.00 | 20 | 1016.6 |
| 20260904000003 | 88 | 130 | 1.0 | 4.0 | 0.00 | 0.00 | 0.00 | 20 | 1016.5 |
| 20260903235403 | 88 | 131 | 1.0 | 4.0 | 0.00 | 0.00 | 0.00 | 20 | 1016.5 |
| 20260903234503 | 88 | 114 | 1.0 | 6.0 | 0.00 | 0.00 | 0.00 | 19 | 1016.5 |
| 20260903233603 | 88 | 141 | 1.0 | 6.0 | 0.00 | 0.00 | 0.00 | 20 | 1016.6 |
| 20260903232703 | 89 | 136 | 1.0 | 6.0 | 0.00 | 0.00 | 0.00 | 20 | 1016.4 |
| 20260903231803 | 89 | 112 | 2.0 | 5.0 | 0.00 | 0.00 | 0.00 | 20 | 1016.5 |
| 20260903230903 | 89 | 130 | 1.0 | 6.0 | 0.00 | 0.00 | 0.00 | 20 | 1016.5 |
| 20260903230003 | 89 | 120 | 1.0 | 4.0 | 0.00 | 0.00 | 0.00 | 19 | 1016.7 |
| 20260903225403 | 89 | 120 | 1.0 | 4.0 | 0.00 | 0.00 | 0.00 | 20 | 1016.5 |
| 20260903224503 | 89 | 132 | 2.0 | 6.0 | 0.00 | 0.00 | 0.00 | 21 | 1016.4 |
| 20260903223819 | 89 | 123 | 2.0 | 5.0 | 0.00 | 0.00 | 0.00 | 20 | 1016.5 |
| 20260903222703 | 89 | 120 | 2.0 | 6.0 | 0.00 | 0.00 | 0.00 | 19 | 1016.6 |
| 20260903222018 | 89 | 128 | 2.0 | 6.0 | 0.00 | 0.00 | 0.00 | 20 | 1016.6 |
| 20260903220903 | 89 | 118 | 2.0 | 7.0 | 0.00 | 0.00 | 0.00 | 20 | 1016.9 |
| 20260903220003 | 90 | 123 | 2.0 | 8.0 | 0.00 | 0.00 | 0.00 | 20 | 1016.9 |
| 20260903215403 | 90 | 120 | 2.0 | 7.0 | 0.00 | 0.00 | 0.00 | 19 | 1016.9 |
| 20260903214503 | 90 | 193 | 2.0 | 7.0 | 0.00 | 0.00 | 0.00 | 19 | 1017.0 |
| 20260903213603 | 90 | 210 | 1.0 | 5.0 | 0.00 | 0.00 | 0.00 | 18 | 1016.9 |
| 20260903212703 | 89 | 188 | 1.0 | 4.0 | 0.00 | 0.00 | 0.00 | 22 | 1016.9 |
| 20260903211803 | 89 | 214 | 2.0 | 6.0 | 0.00 | 0.00 | 0.00 | 22 | 1017.0 |
| 20260903210903 | 90 | 172 | 1.0 | 6.0 | 0.00 | 0.00 | 0.00 | 22 | 1017.2 |
| 20260903210216 | 90 | 88 | 2.0 | 4.0 | 0.00 | 0.00 | 0.00 | 22 | 1017.1 |
| 20260903205403 | 90 | 325 | 1.0 | 4.0 | 0.00 | 0.00 | 0.00 | 21 | 1017.3 |
| 20260903204503 | 90 | 161 | 1.0 | 6.0 | 0.00 | 0.00 | 0.00 | 22 | 1017.6 |
| 20260903203603 | 90 | 197 | 1.0 | 6.0 | 0.00 | 0.00 | 0.00 | 21 | 1017.7 |
| 20260903202917 | 90 | 227 | 0.0 | 3.0 | 0.00 | 0.00 | 0.00 | 22 | 1017.6 |
| 20260903201803 | 90 | 127 | 2.0 | 7.0 | 0.00 | 0.00 | 0.00 | 21 | 1017.9 |
| 20260903200903 | 90 | 81 | 2.0 | 4.0 | 0.00 | 0.00 | 0.00 | 22 | 1018.0 |
| 20260903200003 | 90 | 79 | 1.0 | 5.0 | 0.00 | 0.00 | 0.00 | 22 | 1018.0 |
| 20260903195403 | 90 | 108 | 1.0 | 4.0 | 0.00 | 0.00 | 0.00 | 21 | 1018.2 |
| 20260903194503 | 90 | 125 | 2.0 | 7.0 | 0.00 | 0.00 | 0.00 | 24 | 1018.3 |
| 20260903193818 | 90 | 212 | 1.0 | 5.0 | 0.00 | 0.00 | 0.00 | 24 | 1018.3 |
| 20260903192703 | 90 | 109 | 2.0 | 6.0 | 0.00 | 0.00 | 0.00 | 23 | 1018.4 |
| 20260903191803 | 90 | 193 | 2.0 | 6.0 | 0.00 | 0.00 | 0.00 | 25 | 1018.6 |
| 20260903190903 | 90 | 68 | 1.0 | 5.0 | 0.00 | 0.00 | 0.00 | 23 | 1018.6 |
| 20260903190003 | 89 | 104 | 3.0 | 7.0 | 0.00 | 0.00 | 0.00 | 24 | 1018.6 |
| 20260903185403 | 89 | 87 | 2.0 | 7.0 | 0.00 | 0.00 | 0.00 | 22 | 1018.6 |
| 20260903184503 | 88 | 317 | 1.0 | 4.0 | 0.00 | 0.00 | 0.00 | 29 | 1018.8 |
| 20260903183817 | 89 | 72 | 1.0 | 4.0 | 0.00 | 0.00 | 0.00 | 22 | 1018.9 |
| 20260903182703 | 88 | 73 | 2.0 | 5.0 | 0.00 | 0.00 | 0.00 | 24 | 1019.2 |
| 20260903181803 | 87 | 66 | 1.0 | 4.0 | 0.00 | 0.00 | 0.00 | 25 | 1019.3 |
| 20260903180903 | 87 | 266 | 1.0 | 3.0 | 0.00 | 0.00 | 0.00 | 25 | 1019.4 |
| 20260903180219 | 87 | 247 | 1.0 | 3.0 | 0.00 | 0.00 | 0.00 | 25 | 1019.4 |
| 20260903175618 | 88 | 243 | 1.0 | 3.0 | 0.00 | 0.00 | 0.00 | 24 | 1019.5 |
| 20260903174503 | 88 | 80 | 1.0 | 3.0 | 0.00 | 0.00 | 0.00 | 26 | 1019.5 |
| 20260903173603 | 88 | 142 | 1.0 | 2.0 | 0.00 | 0.00 | 0.00 | 24 | 1019.9 |
| 20260903172703 | 88 | 108 | 1.0 | 3.0 | 0.00 | 0.00 | 0.00 | 27 | 1019.9 |
| 20260903171803 | 88 | 95 | 1.0 | 4.0 | 0.00 | 0.00 | 0.00 | 26 | 1019.9 |
| 20260903170903 | 87 | 111 | 0.0 | 3.0 | 0.00 | 0.00 | 0.00 | 28 | 1019.9 |
| 20260903170218 | 86 | 0 | 0.0 | 0.0 | 0.00 | 0.00 | 0.00 | 33 | 1019.9 |
| 20260903165403 | 84 | 143 | 0.0 | 2.0 | 0.00 | 0.00 | 0.00 | 30 | 1019.9 |
| 20260903164503 | 83 | 186 | 0.0 | 1.0 | 0.00 | 0.00 | 0.00 | 30 | 1019.9 |
| 20260903163603 | 81 | 243 | 0.0 | 2.0 | 0.00 | 0.00 | 0.00 | 36 | 1019.9 |
| 20260903162703 | 82 | 275 | 0.0 | 2.0 | 0.00 | 0.00 | 0.00 | 32 | 1020.0 |
| 20260903161803 | 82 | 0 | 0.0 | 0.0 | 0.00 | 0.00 | 0.00 | 36 | 1020.0 |
| 20260903160903 | 82 | 0 | 0.0 | 0.0 | 0.00 | 0.00 | 0.00 | 33 | 1019.9 |
| 20260903160003 | 83 | 0 | 0.0 | 0.0 | 0.00 | 0.00 | 0.00 | 32 | 1019.9 |
| 20260903155403 | 83 | 71 | 0.0 | 3.0 | 0.00 | 0.00 | 0.00 | 34 | 1019.9 |
| 20260903154503 | 82 | 111 | 1.0 | 3.0 | 0.00 | 0.00 | 0.00 | 33 | 1020.0 |
| 20260903153603 | 82 | 70 | 0.0 | 2.0 | 0.00 | 0.00 | 0.00 | 32 | 1020.1 |
| 20260903152703 | 80 | 0 | 0.0 | 0.0 | 0.00 | 0.00 | 0.00 | 36 | 1020.0 |
| 20260903152019 | 79 | 0 | 0.0 | 0.0 | 0.00 | 0.00 | 0.00 | 35 | 1020.2 |
| 20260903150903 | 75 | 0 | 0.0 | 0.0 | 0.00 | 0.00 | 0.00 | 37 | 1020.1 |
| 20260903150003 | 74 | 0 | 0.0 | 0.0 | 0.00 | 0.00 | 0.00 | 43 | 1020.1 |
| 20260903145403 | 73 | 0 | 0.0 | 0.0 | 0.00 | 0.00 | 0.00 | 42 | 1020.1 |
| 20260903144503 | 72 | 0 | 0.0 | 0.0 | 0.00 | 0.00 | 0.00 | 40 | 1020.2 |
| 20260903143603 | 71 | 0 | 0.0 | 0.0 | 0.00 | 0.00 | 0.00 | 46 | 1020.1 |
| 20260903142703 | 69 | 0 | 0.0 | 0.0 | 0.00 | 0.00 | 0.00 | 46 | 1020.3 |
| 20260903141803 | 68 | 0 | 0.0 | 0.0 | 0.00 | 0.00 | 0.00 | 46 | 1020.1 |
| 20260903140903 | 66 | 0 | 0.0 | 0.0 | 0.00 | 0.00 | 0.00 | 50 | 1020.0 |
| 20260903140003 | 65 | 0 | 0.0 | 1.0 | 0.00 | 0.00 | 0.00 | 52 | 1020.1 |
| 20260903135403 | 65 | 348 | 0.0 | 1.0 | 0.00 | 0.00 | 0.00 | 52 | 1020.1 |
| 20260903134503 | 64 | 354 | 0.0 | 1.0 | 0.00 | 0.00 | 0.00 | 50 | 1020.1 |
| 20260903133603 | 63 | 71 | 0.0 | 2.0 | 0.00 | 0.00 | 0.00 | 52 | 1020.0 |
| 20260903132703 | 62 | 59 | 1.0 | 2.0 | 0.00 | 0.00 | 0.00 | 49 | 1019.7 |
| 20260903132018 | 61 | 27 | 1.0 | 3.0 | 0.00 | 0.00 | 0.00 | 51 | 1019.6 |
| 20260903130903 | 60 | 313 | 1.0 | 3.0 | 0.00 | 0.00 | 0.00 | 54 | 1019.6 |
| 20260903130003 | 60 | 71 | 0.0 | 2.0 | 0.00 | 0.00 | 0.00 | 54 | 1019.4 |
| 20260903125403 | 60 | 66 | 0.0 | 2.0 | 0.00 | 0.00 | 0.00 | 55 | 1019.2 |
| 20260903124503 | 60 | 281 | 0.0 | 2.0 | 0.00 | 0.00 | 0.00 | 54 | 1019.2 |
| 20260903123819 | 61 | 276 | 0.0 | 2.0 | 0.00 | 0.00 | 0.00 | 54 | 1019.1 |
| 20260903122918 | 61 | 291 | 1.0 | 4.0 | 0.00 | 0.00 | 0.00 | 54 | 1018.9 |
| 20260903122018 | 61 | 296 | 0.0 | 1.0 | 0.00 | 0.00 | 0.00 | 54 | 1018.8 |
| 20260903120903 | 61 | 296 | 0.0 | 2.0 | 0.00 | 0.00 | 0.00 | 53 | 1018.6 |
| 20260903120216 | 61 | 297 | 0.0 | 3.0 | 0.00 | 0.00 | 0.00 | 54 | 1018.6 |
| 20260903115616 | 61 | 291 | 1.0 | 3.0 | 0.00 | 0.00 | 0.00 | 53 | 1018.6 |
| 20260903114503 | 61 | 323 | 1.0 | 3.0 | 0.00 | 0.00 | 0.00 | 55 | 1018.3 |
| 20260903113603 | 61 | 296 | 0.0 | 2.0 | 0.00 | 0.00 | 0.00 | 54 | 1018.6 |
| 20260903112703 | 61 | 294 | 0.0 | 1.0 | 0.00 | 0.00 | 0.00 | 52 | 1018.4 |
| 20260903111803 | 61 | 294 | 0.0 | 2.0 | 0.00 | 0.00 | 0.00 | 54 | 1018.6 |
| 20260903110903 | 61 | 304 | 1.0 | 3.0 | 0.00 | 0.00 | 0.00 | 57 | 1018.5 |
| 20260903110003 | 61 | 70 | 0.0 | 2.0 | 0.00 | 0.00 | 0.00 | 56 | 1018.4 |
| 20260903105403 | 61 | 80 | 0.0 | 1.0 | 0.00 | 0.00 | 0.00 | 55 | 1018.3 |
| 20260903104503 | 61 | 80 | 0.0 | 2.0 | 0.00 | 0.00 | 0.00 | 54 | 1018.4 |
| 20260903103603 | 61 | 80 | 0.0 | 1.0 | 0.00 | 0.00 | 0.00 | 53 | 1018.2 |
| 20260903102703 | 61 | 81 | 0.0 | 3.0 | 0.00 | 0.00 | 0.00 | 54 | 1018.2 |
| 20260903101803 | 61 | 74 | 1.0 | 3.0 | 0.00 | 0.00 | 0.00 | 55 | 1018.1 |
| 20260903100903 | 62 | 76 | 0.0 | 2.0 | 0.00 | 0.00 | 0.00 | 58 | 1018.2 |
| 20260903100003 | 62 | 81 | 1.0 | 3.0 | 0.00 | 0.00 | 0.00 | 57 | 1018.6 |
| 20260903095403 | 62 | 82 | 1.0 | 3.0 | 0.00 | 0.00 | 0.00 | 58 | 1018.3 |
| 20260903094718 | 62 | 78 | 1.0 | 2.0 | 0.00 | 0.00 | 0.00 | 57 | 1018.3 |
| 20260903093603 | 62 | 56 | 0.0 | 2.0 | 0.00 | 0.00 | 0.00 | 58 | 1018.3 |
| 20260903092703 | 62 | 0 | 0.0 | 0.0 | 0.00 | 0.00 | 0.00 | 58 | 1018.4 |
| 20260903091803 | 63 | 0 | 0.0 | 0.0 | 0.00 | 0.00 | 0.00 | 58 | 1018.4 |
| 20260903090903 | 63 | 0 | 0.0 | 0.0 | 0.00 | 0.00 | 0.00 | 57 | 1018.4 |
| 20260903090003 | 64 | 290 | 0.0 | 2.0 | 0.00 | 0.00 | 0.00 | 55 | 1018.4 |
| 20260903085403 | 64 | 0 | 0.0 | 0.0 | 0.00 | 0.00 | 0.00 | 53 | 1018.4 |
| 20260903084503 | 64 | 55 | 0.0 | 1.0 | 0.00 | 0.00 | 0.00 | 55 | 1018.4 |
| 20260903083603 | 64 | 54 | 1.0 | 2.0 | 0.00 | 0.00 | 0.00 | 54 | 1018.4 |
| 20260903082917 | 65 | 313 | 1.0 | 7.0 | 0.00 | 0.00 | 0.00 | 54 | 1018.6 |
| 20260903081803 | 65 | 55 | 0.0 | 2.0 | 0.00 | 0.00 | 0.00 | 53 | 1018.4 |
| 20260903080903 | 66 | 49 | 0.0 | 3.0 | 0.00 | 0.00 | 0.00 | 52 | 1018.5 |
| 20260903080003 | 66 | 280 | 0.0 | 1.0 | 0.00 | 0.00 | 0.00 | 52 | 1018.4 |
| 20260903075403 | 67 | 0 | 0.0 | 1.0 | 0.00 | 0.00 | 0.00 | 51 | 1018.4 |
| 20260903074503 | 67 | 280 | 0.0 | 1.0 | 0.00 | 0.00 | 0.00 | 50 | 1018.5 |
| 20260903073603 | 67 | 281 | 1.0 | 3.0 | 0.00 | 0.00 | 0.00 | 50 | 1018.5 |
| 20260903072916 | 68 | 282 | 1.0 | 3.0 | 0.00 | 0.00 | 0.00 | 50 | 1018.6 |
| 20260903071803 | 68 | 280 | 0.0 | 2.0 | 0.00 | 0.00 | 0.00 | 49 | 1018.5 |
| 20260903070903 | 68 | 283 | 0.0 | 3.0 | 0.00 | 0.00 | 0.00 | 49 | 1018.5 |
| 20260903070219 | 68 | 293 | 0.0 | 3.0 | 0.00 | 0.00 | 0.00 | 48 | 1018.5 |
| 20260903065403 | 69 | 298 | 0.0 | 1.0 | 0.00 | 0.00 | 0.00 | 48 | 1018.5 |
| 20260903064503 | 69 | 298 | 0.0 | 1.0 | 0.00 | 0.00 | 0.00 | 47 | 1018.4 |
| 20260903063603 | 70 | 298 | 0.0 | 2.0 | 0.00 | 0.00 | 0.00 | 46 | 1018.5 |
| 20260903062703 | 71 | 298 | 0.0 | 2.0 | 0.00 | 0.00 | 0.00 | 45 | 1018.6 |
| 20260903061803 | 71 | 291 | 1.0 | 4.0 | 0.00 | 0.00 | 0.00 | 45 | 1018.5 |
| 20260903061119 | 72 | 291 | 2.0 | 9.0 | 0.00 | 0.00 | 0.00 | 44 | 1018.5 |
| 20260903060004 | 72 | 290 | 2.0 | 11.0 | 0.00 | 0.00 | 0.00 | 43 | 1018.3 |
| 20260903055403 | 72 | 292 | 3.0 | 11.0 | 0.00 | 0.00 | 0.00 | 43 | 1018.2 |
| 20260903054503 | 72 | 296 | 3.0 | 10.0 | 0.00 | 0.00 | 0.00 | 43 | 1018.4 |
| 20260903053603 | 72 | 285 | 4.0 | 9.0 | 0.00 | 0.00 | 0.00 | 43 | 1018.5 |
| 20260903052703 | 72 | 290 | 3.0 | 9.0 | 0.00 | 0.00 | 0.00 | 42 | 1018.3 |
| 20260903051803 | 72 | 289 | 3.0 | 9.0 | 0.00 | 0.00 | 0.00 | 42 | 1018.4 |
| 20260903050903 | 73 | 293 | 3.0 | 8.0 | 0.00 | 0.00 | 0.00 | 41 | 1018.4 |
| 20260903050003 | 73 | 290 | 4.0 | 11.0 | 0.00 | 0.00 | 0.00 | 40 | 1018.3 |
| 20260903045403 | 73 | 290 | 3.0 | 11.0 | 0.00 | 0.00 | 0.00 | 40 | 1018.1 |
| 20260903044717 | 72 | 292 | 3.0 | 10.0 | 0.00 | 0.00 | 0.00 | 40 | 1018.2 |
| 20260903043603 | 72 | 291 | 1.0 | 5.0 | 0.00 | 0.00 | 0.00 | 38 | 1018.2 |
| 20260903042703 | 73 | 19 | 0.0 | 1.0 | 0.00 | 0.00 | 0.00 | 37 | 1018.2 |
| 20260903041803 | 73 | 0 | 0.0 | 1.0 | 0.00 | 0.00 | 0.00 | 36 | 1018.1 |
| 20260903040903 | 74 | 0 | 0.0 | 1.0 | 0.00 | 0.00 | 0.00 | 36 | 1018.1 |
| 20260903040217 | 74 | 69 | 0.0 | 2.0 | 0.00 | 0.00 | 0.00 | 35 | 1018.1 |
| 20260903035403 | 75 | 92 | 0.0 | 2.0 | 0.00 | 0.00 | 0.00 | 34 | 1018.2 |